CW9197 Juva FI current weather conditions

sailwx.info

Wind from 190 at 3 knots gusting 6

Air temperature -1.1° C
Dewpoint -1.1° C

Last reported at 2015-Jan-30 05:45 UTC.
Time now 2015-Jan-30 06:21 UTC

Location: N 61°53' E 027°53'.
View on Google Maps.

See reports from other nearby stations

  
Tides and Currents Weather Stations Pressure Air Temp Water Temp Dewpoint Dewpoint Depression Visibility Wind Speed Wind Dir Waves Ship Positions
date/time (UTC)wind fromknots sea level pressurealtimeterstation pressurevisibilityair tempwater tempwave heightnotes
2015-Jan-30 05:45 190 3 gusting 6 -1.1
2015-Jan-30 05:35 186 2 gusting 6 -1.1
2015-Jan-30 05:25 185 3 gusting 6 -1.1
2015-Jan-30 05:15 187 2 gusting 5 -1.1
2015-Jan-30 05:05 182 2 gusting 6 -1.1
2015-Jan-30 04:55 184 2 gusting 6 -1.1
2015-Jan-30 04:45 183 3 gusting 5 -1.1
2015-Jan-30 04:35 186 2 gusting 6 -1.1
2015-Jan-30 04:25 190 2 gusting 5 -1.1
2015-Jan-30 04:15 184 2 gusting 6 -1.1
2015-Jan-30 04:05 184 2 gusting 6 -1.1
2015-Jan-30 03:55 189 2 gusting 6 -1.1
2015-Jan-30 03:45 187 2 gusting 4 -1.1
2015-Jan-30 03:35 194 2 gusting 6 -1.1
2015-Jan-30 03:25 191 2 gusting 6 -1.1
2015-Jan-30 03:15 189 2 gusting 6 -1.1
2015-Jan-30 03:05 185 2 gusting 5 -1.1
2015-Jan-30 02:55 189 3 gusting 7 -1.7
2015-Jan-30 02:45 189 2 gusting 6 -1.7
2015-Jan-30 02:35 182 2 gusting 6 -1.7
2015-Jan-30 02:25 184 2 gusting 6 -1.7
2015-Jan-30 02:15 184 2 gusting 5 -1.7
2015-Jan-30 02:05 171 1 gusting 5 -1.7
2015-Jan-30 01:55 176 1 gusting 5 -1.7
2015-Jan-30 01:45 180 2 gusting 5 -1.7
2015-Jan-30 01:35 188 1 gusting 3 -1.7
2015-Jan-30 01:25 178 1 gusting 4 -1.7
2015-Jan-30 01:15 179 2 gusting 5 -1.7
2015-Jan-30 01:05 185 2 gusting 4 -1.7
2015-Jan-30 00:55 186 3 gusting 6 -1.7
2015-Jan-30 00:45 185 2 gusting 5 -1.7
2015-Jan-30 00:35 181 2 gusting 5 -1.7
2015-Jan-30 00:25 181 2 gusting 6 -1.7
2015-Jan-30 00:15 180 2 gusting 5 -1.7
2015-Jan-30 00:05 177 3 gusting 6 -1.7
2015-Jan-29 23:55 182 2 gusting 4 -1.7
2015-Jan-29 23:45 174 2 gusting 6 -1.7
2015-Jan-29 23:35 175 2 gusting 8 -1.7
2015-Jan-29 23:25 177 2 gusting 5 -1.7
2015-Jan-29 23:15 173 1 gusting 5 -1.7
2015-Jan-29 23:05 177 3 gusting 7 -1.7
2015-Jan-29 22:55 176 2 gusting 6 -1.7
2015-Jan-29 22:45 180 3 gusting 7 -1.7
2015-Jan-29 22:35 170 3 gusting 6 -1.7
2015-Jan-29 22:25 178 3 gusting 6 -1.7
2015-Jan-29 22:15 183 3 gusting 8 -1.7
2015-Jan-29 22:05 181 3 gusting 6 -1.7
2015-Jan-29 21:55 185 3 gusting 6 -1.7
2015-Jan-29 21:45 180 4 gusting 10 -1.7
2015-Jan-29 21:35 178 2 gusting 6 -1.7
2015-Jan-29 21:25 182 3 gusting 7 -1.7
2015-Jan-29 21:15 185 3 gusting 6 -1.7
2015-Jan-29 21:05 184 3 gusting 6 -1.7
2015-Jan-29 20:55 184 4 gusting 7 -1.7
2015-Jan-29 20:45 180 3 gusting 8 -1.7
2015-Jan-29 20:35 174 4 gusting 8 -1.7
2015-Jan-29 20:25 183 4 gusting 8 -1.7
2015-Jan-29 20:15 185 4 gusting 6 -1.7
2015-Jan-29 20:05 185 4 gusting 8 -2.2
2015-Jan-29 19:55 181 3 gusting 6 -1.7
2015-Jan-29 19:45 187 4 gusting 8 -1.7
2015-Jan-29 19:35 182 4 gusting 8 -1.7
2015-Jan-29 19:25 180 4 gusting 8 -1.7
2015-Jan-29 19:15 177 4 gusting 12 -2.2
2015-Jan-29 19:05 181 4 gusting 7 -1.7
2015-Jan-29 18:55 184 4 gusting 7 -2.2
2015-Jan-29 18:45 184 4 gusting 6 -2.2
2015-Jan-29 18:35 179 2 gusting 6 -2.2
2015-Jan-29 18:25 190 2 gusting 6 -2.2
2015-Jan-29 18:15 182 3 gusting 7 -2.2
2015-Jan-29 18:05 180 4 gusting 7 -2.2
2015-Jan-29 17:55 185 4 gusting 7 -2.2
2015-Jan-29 17:45 181 4 gusting 8 -2.2
2015-Jan-29 17:35 182 4 gusting 8 -2.2
2015-Jan-29 17:25 181 3 gusting 8 -2.2
2015-Jan-29 17:15 185 3 gusting 6 -1.7
2015-Jan-29 17:05 187 4 gusting 7 -1.7
2015-Jan-29 16:55 186 5 gusting 9 -1.7
2015-Jan-29 16:45 190 5 gusting 8 -1.7
2015-Jan-29 16:35 191 6 gusting 8 -1.7
2015-Jan-29 16:25 192 6 gusting 11 -1.7
2015-Jan-29 16:15 188 6 gusting 9 -1.7
2015-Jan-29 16:05 189 5 gusting 8 -1.7
2015-Jan-29 15:55 190 5 gusting 8 -1.7
2015-Jan-29 15:45 185 6 gusting 10 -1.7
2015-Jan-29 15:35 189 6 gusting 9 -1.7
2015-Jan-29 15:25 193 6 gusting 8 -1.7
2015-Jan-29 15:15 187 6 gusting 10 -1.7
2015-Jan-29 15:05 182 5 gusting 9 -1.7
2015-Jan-29 14:55 187 6 gusting 10 -1.7
2015-Jan-29 14:45 187 6 gusting 10 -1.7
2015-Jan-29 14:35 183 5 gusting 7 -1.7
2015-Jan-29 14:25 185 5 gusting 8 -1.7
2015-Jan-29 14:15 184 4 gusting 7 -1.7
2015-Jan-29 14:05 181 5 gusting 8 -1.7
2015-Jan-29 13:55 182 5 gusting 10 -1.7
2015-Jan-29 13:45 180 4 gusting 7 -1.7
2015-Jan-29 13:35 186 4 gusting 10 -1.7
2015-Jan-29 13:25 182 4 gusting 8 -1.7
2015-Jan-29 13:15 174 4 gusting 7 -1.7
2015-Jan-29 13:05 177 4 gusting 8 -1.7
2015-Jan-29 12:55 178 5 gusting 10 -1.7
2015-Jan-29 12:45 181 4 gusting 8 -1.7
2015-Jan-29 12:35 182 6 gusting 11 -1.7
2015-Jan-29 12:25 182 5 gusting 9 -2.2
2015-Jan-29 12:15 177 4 gusting 10 -1.7
2015-Jan-29 12:05 177 3 gusting 8 -1.7
2015-Jan-29 11:55 184 4 gusting 7 -1.7
2015-Jan-29 11:45 185 4 gusting 8 -1.7
2015-Jan-29 11:35 177 3 gusting 7 -1.7
2015-Jan-29 11:25 168 3 gusting 7 -2.2
2015-Jan-29 11:15 179 3 gusting 6 -2.2
2015-Jan-29 11:05 179 5 gusting 9 -2.2
2015-Jan-29 10:55 180 4 gusting 7 -1.7
2015-Jan-29 10:45 185 4 gusting 10 -2.2
2015-Jan-29 10:35 195 6 gusting 10 -2.2
2015-Jan-29 10:25 191 6 gusting 11 -2.2
2015-Jan-29 10:15 200 6 gusting 10 -2.2
2015-Jan-29 10:05 188 6 gusting 12 -2.2
2015-Jan-29 09:55 200 6 gusting 11 -2.2
2015-Jan-29 09:45 197 6 gusting 8 -2.2
2015-Jan-29 09:35 193 6 gusting 13 -2.2
2015-Jan-29 09:25 190 6 gusting 10 -2.2
2015-Jan-29 09:15 191 6 gusting 11 -2.2
2015-Jan-29 09:05 191 6 gusting 10 -2.2
2015-Jan-29 08:55 197 6 gusting 10 -2.2
2015-Jan-29 08:45 189 6 gusting 11 -2.2
2015-Jan-29 08:35 200 8 gusting 12 -2.2
2015-Jan-29 08:25 189 6 gusting 11 -1.7
2015-Jan-29 08:15 198 6 gusting 9 -1.7
2015-Jan-29 08:05 197 6 gusting 10 -1.7
2015-Jan-29 07:55 194 6 gusting 11 -1.7
2015-Jan-29 07:45 194 7 gusting 11 -1.7
2015-Jan-29 07:35 201 6 gusting 11 -1.7
2015-Jan-29 07:25 200 6 gusting 8 -1.7
2015-Jan-29 07:15 199 6 gusting 13 -1.7
2015-Jan-29 07:05 202 7 gusting 13 -1.7
2015-Jan-29 06:55 199 6 gusting 10 -1.7
2015-Jan-29 06:45 196 6 gusting 10 -1.7
2015-Jan-29 05:45 193 6 gusting 8 -1.1
2015-Jan-29 05:35 199 6 gusting 9 -1.1
2015-Jan-29 05:25 203 5 gusting 8 -1.1
2015-Jan-29 05:15 195 6 gusting 8 -1.1
2015-Jan-29 05:05 196 5 gusting 7 -1.1
2015-Jan-29 04:55 193 4 gusting 8 -1.1
2015-Jan-29 04:45 196 5 gusting 7 -1.1
2015-Jan-29 04:35 200 6 gusting 8 -1.1
2015-Jan-29 04:25 204 5 gusting 8 -1.1
2015-Jan-29 04:15 204 6 gusting 8 -1.1
2015-Jan-29 04:05 207 6 gusting 8 -1.1
2015-Jan-29 03:55 205 6 gusting 8 -1.1
2015-Jan-29 03:45 204 6 gusting 9 -1.1
2015-Jan-29 03:35 213 8 gusting 13 -0.6
2015-Jan-29 03:25 207 8 gusting 13 -0.6
2015-Jan-29 03:15 209 7 gusting 11 -0.6
2015-Jan-29 03:05 209 8 gusting 11 -0.6
2015-Jan-29 02:55 208 8 gusting 11 -0.6
2015-Jan-29 02:45 210 8 gusting 12 -0.6
2015-Jan-29 02:35 205 7 gusting 11 -0.6
2015-Jan-29 02:25 209 7 gusting 12 -0.6
2015-Jan-29 02:15 212 7 gusting 10 -0.6
2015-Jan-29 02:05 213 8 gusting 11 -0.6
2015-Jan-29 01:55 208 7 gusting 11 -0.6
2015-Jan-29 01:45 209 7 gusting 10 -0.6
2015-Jan-29 01:35 208 7 gusting 12 -0.6
2015-Jan-29 01:25 211 8 gusting 13 -0.6
2015-Jan-29 01:15 208 8 gusting 13 -0.6
2015-Jan-29 01:05 206 7 gusting 10 -0.6
2015-Jan-29 00:55 206 8 gusting 11 -0.6
2015-Jan-29 00:45 212 7 gusting 11 -0.6
2015-Jan-29 00:35 216 8 gusting 13 -0.6
2015-Jan-29 00:25 207 8 gusting 12 -0.6
2015-Jan-29 00:15 213 8 gusting 13 -0.6
2015-Jan-29 00:05 212 9 gusting 12 -0.6
2015-Jan-28 23:55 210 8 gusting 12 -0.6
2015-Jan-28 23:45 216 8 gusting 11 -0.6
2015-Jan-28 23:35 209 9 gusting 13 -0.6
2015-Jan-28 23:25 210 9 gusting 13 -0.6
2015-Jan-28 23:15 209 10 gusting 13 -0.6
2015-Jan-28 23:05 211 10 gusting 16 -0.6
2015-Jan-28 22:55 211 9 gusting 14 -0.6
2015-Jan-28 22:45 209 9 gusting 13 -0.6
2015-Jan-28 22:35 211 9 gusting 16 -0.6
2015-Jan-28 22:25 211 10 gusting 14 -0.6
2015-Jan-28 22:15 213 10 gusting 13 -0.6
2015-Jan-28 22:05 214 11 gusting 15 -0.6
2015-Jan-28 21:55 214 12 gusting 15 -0.6
2015-Jan-28 21:45 211 11 gusting 15 -0.6
2015-Jan-28 21:35 215 10 gusting 14 -0.6
2015-Jan-28 21:25 212 10 gusting 13 -0.6
2015-Jan-28 21:15 213 10 gusting 14 -0.6
2015-Jan-28 21:05 212 11 gusting 16 -0.6
2015-Jan-28 20:55 215 11 gusting 15 -0.6
2015-Jan-28 20:45 212 10 gusting 14 -0.6
2015-Jan-28 20:35 211 11 gusting 14 -0.6
2015-Jan-28 20:25 211 10 gusting 15 -0.6
2015-Jan-28 20:15 212 11 gusting 14 -0.6
2015-Jan-28 20:05 212 10 gusting 13 -0.6
2015-Jan-28 19:55 209 11 gusting 15 -0.6
2015-Jan-28 19:45 209 12 gusting 17 -0.6
2015-Jan-28 19:35 211 10 gusting 15 -0.6
2015-Jan-28 19:25 212 11 gusting 16 -0.6
2015-Jan-28 19:15 209 11 gusting 17 -0.6
2015-Jan-28 19:05 211 11 gusting 15 -0.6
2015-Jan-28 18:55 212 11 gusting 17 -0.6
2015-Jan-28 18:45 208 11 gusting 16 -0.6
2015-Jan-28 18:35 209 10 gusting 14 -0.6
2015-Jan-28 18:25 212 11 gusting 16 -0.6
2015-Jan-28 18:15 208 11 gusting 15 -0.6
2015-Jan-28 18:05 212 10 gusting 15 -0.6
2015-Jan-28 17:55 213 10 gusting 15 -0.6
2015-Jan-28 17:45 208 9 gusting 13 -0.6
2015-Jan-28 17:35 210 9 gusting 13 -0.6
2015-Jan-28 17:25 211 9 gusting 12 -0.6
2015-Jan-28 17:15 212 9 gusting 13 -0.6
2015-Jan-28 17:05 209 8 gusting 11 -0.6
2015-Jan-28 16:55 206 8 gusting 14 -1.1
2015-Jan-28 16:45 209 8 gusting 13 -1.1
2015-Jan-28 16:35 206 7 gusting 10 -1.1
2015-Jan-28 16:25 205 7 gusting 10 -1.1
2015-Jan-28 16:15 208 7 gusting 10 -1.1
2015-Jan-28 16:05 207 7 gusting 10 -1.1
2015-Jan-28 15:55 209 7 gusting 12 -1.7
2015-Jan-28 15:45 204 7 gusting 10 -1.7
2015-Jan-28 15:35 205 7 gusting 13 -1.7
2015-Jan-28 15:25 209 8 gusting 12 -1.7
2015-Jan-28 15:15 209 7 gusting 11 -1.1
2015-Jan-28 15:05 206 8 gusting 12 -1.1
2015-Jan-28 14:55 209 8 gusting 11 -1.1
2015-Jan-28 14:45 209 8 gusting 12 -1.7
2015-Jan-28 14:35 205 8 gusting 13 -1.7
2015-Jan-28 14:25 205 8 gusting 13 -1.7
2015-Jan-28 14:15 208 8 gusting 13 -1.1
2015-Jan-28 14:05 205 9 gusting 13 -1.1
2015-Jan-28 13:55 207 8 gusting 13 -1.1
2015-Jan-28 13:45 206 8 gusting 11 -1.1
2015-Jan-28 13:35 208 8 gusting 12 -1.1
2015-Jan-28 13:25 203 7 gusting 12 -1.1
2015-Jan-28 13:15 205 7 gusting 12 -1.1
2015-Jan-28 13:05 206 8 gusting 13 -1.1
2015-Jan-28 12:55 206 8 gusting 11 -1.7
2015-Jan-28 12:45 207 7 gusting 10 -1.7
2015-Jan-28 12:35 211 7 gusting 10 -1.7
2015-Jan-28 12:25 209 7 gusting 12 -1.7
2015-Jan-28 12:15 213 7 gusting 10 -1.7
2015-Jan-28 12:05 206 7 gusting 13 -1.7
2015-Jan-28 11:55 208 8 gusting 11 -1.7
2015-Jan-28 11:45 211 8 gusting 12 -1.7
2015-Jan-28 11:35 213 8 gusting 13 -2.2
2015-Jan-28 11:25 213 8 gusting 12 -2.2
2015-Jan-28 11:15 214 8 gusting 13 -2.2
2015-Jan-28 11:05 212 8 gusting 12 -2.2
2015-Jan-28 10:55 212 8 gusting 11 -2.2
2015-Jan-28 10:45 213 8 gusting 12 -2.2
2015-Jan-28 10:35 216 8 gusting 12 -2.2
2015-Jan-28 10:25 208 7 gusting 11 -2.2
2015-Jan-28 10:15 209 8 gusting 13 -2.2
2015-Jan-28 10:05 208 8 gusting 13 -2.2
2015-Jan-28 09:55 214 8 gusting 11 -2.8
2015-Jan-28 09:45 209 7 gusting 11 -2.8
2015-Jan-28 09:35 209 6 gusting 8 -2.8
2015-Jan-28 09:25 212 6 gusting 9 -2.8
2015-Jan-28 09:15 210 6 gusting 10 -2.8
2015-Jan-28 09:05 215 6 gusting 10 -2.8
2015-Jan-28 08:55 212 6 gusting 8 -2.8
2015-Jan-28 08:45 210 6 gusting 10 -2.8
2015-Jan-28 08:35 212 7 gusting 9 -2.8
2015-Jan-28 08:25 214 6 gusting 10 -2.8
2015-Jan-28 08:15 214 6 gusting 9 -2.8
2015-Jan-28 08:05 210 7 gusting 12 -2.8
2015-Jan-28 07:55 205 6 gusting 8 -2.8
2015-Jan-28 07:45 209 6 gusting 11 -2.8
2015-Jan-28 07:35 211 6 gusting 8 -2.8
2015-Jan-28 07:25 206 6 gusting 10 -2.8
2015-Jan-28 07:15 207 6 gusting 10 -2.8
2015-Jan-28 07:05 207 6 gusting 10 -2.8
2015-Jan-28 06:55 214 6 gusting 8 -2.8
2015-Jan-28 06:45 207 7 gusting 10 -2.8